#timestamp,LO_Frequency,Hit,StdDev 
1608544815.4,286046998.2,N
1608544835.3,286046999.2,N
1608544855.1,286046999.8,N
1608544875.8,286047000.0,N
1608544895.7,286047001.8,N
1608544915.5,286047001.6,N
1608544935.4,286046998.1,N
1608544955.2,286047001.0,N
1608544975.0,286047000.9,N
1608544975.9,286047000.9,N
1608544995.8,286047000.4,N
1608545015.6,286047000.8,N
1608545035.5,286047000.6,N
1608545055.3,286046999.9,N
1608545075.1,286046999.9,N
1608545095.9,286047002.2,N
1608545115.7,286047001.9,N
1608545135.5,286047002.4,N
1608545155.4,286046998.2,N
1608545175.2,286047000.9,N
1608545195.1,286047000.2,N
1608545196.0,286047000.2,N
1608545215.8,286046998.1,N
1608545235.6,286047000.9,N
1608545255.5,286046999.7,N
1608545275.3,286047002.1,N
1608545295.1,286047002.6,N
1608545315.9,286047001.6,N
1608545335.7,286047002.0,N
1608545355.6,286046999.9,N
1608545375.4,286047000.3,N
1608545395.2,286047000.3,N
1608545415.1,286046999.7,N
1608545416.0,286046999.7,N
1608545435.8,286047000.0,N
1608545455.7,286047000.9,N
1608545475.5,286047000.4,N
1608545495.3,286047000.3,N
1608545515.2,286047000.3,N
1608545535.0,286046999.0,N
1608545535.9,286046999.0,N
1608545555.7,286047001.2,N
1608545575.6,286047000.7,N
1608545595.4,286046996.7,N
1608545615.3,286046998.3,N
1608545635.1,286046998.6,N
1608545636.0,286046998.6,N
1608545655.8,286046998.3,N
1608545675.7,286046998.2,N
1608545695.5,286046999.8,N
1608545715.3,286047000.3,N
1608545735.2,286047001.2,N
1608545755.0,286047000.7,N
1608545755.9,286047000.7,N
1608545775.8,286047000.5,N
1608545795.6,286047002.3,N
1608545815.4,286047002.7,N
1608545835.3,286047001.2,N
1608545855.1,286047001.0,N
1608545875.8,286047000.6,N
1608545895.7,286047000.9,N
1608545915.5,286046998.8,N
1608545935.4,286046998.7,N
1608545955.2,286047001.0,N
1608545975.0,286047000.0,N
1608545975.9,286047000.0,N
1608545995.8,286047000.3,N
1608546015.6,286047000.4,N
1608546035.4,286047000.0,N
1608546055.3,286046998.1,N
1608546075.1,286047001.2,N
1608546095.9,286046998.9,N
1608546115.7,286046999.4,N
1608546135.5,286046997.8,N
1608546155.4,286046995.1,Y
1608546175.2,286046996.0,P
1608546195.0,286046995.9,N
1608546196.0,286046995.9,N
1608546215.8,286046995.8,N
1608546235.6,286046994.1,Y
1608546255.5,286046996.6,P
1608546275.3,286046997.1,P
1608546295.1,286046996.5,P
1608546315.9,286046997.0,Y
1608546335.7,286047004.0,P
1608546355.6,286047003.4,N
1608546375.4,286047004.6,N
1608546395.2,286047005.1,N
1608546415.1,286047007.6,N
1608546416.0,286047007.6,N
1608546435.8,286047006.3,N
1608546455.6,286047005.1,N
1608546475.5,286047003.2,N
1608546495.3,286047004.0,N
1608546515.2,286047003.4,N
1608546535.9,286047005.1,N
1608546555.7,286047006.9,N
1608546575.6,286047005.0,N
1608546595.4,286047007.1,N
1608546615.2,286047004.8,N
1608546635.1,286047004.6,N
1608546636.0,286047004.6,N
1608546655.8,286047007.5,Y
1608546675.7,286047000.2,P
1608546695.5,286047001.1,N
1608546715.3,286046998.1,N
1608546735.2,286047000.0,N
1608546755.0,286047001.1,N
1608546755.9,286047001.1,N
1608546775.8,286046999.9,N
1608546795.6,286047000.4,N
1608546815.4,286047000.2,N
1608546835.3,286047001.6,N
1608546855.1,286047000.1,N
1608546875.8,286047001.3,N
1608546895.7,286047001.9,N
1608546915.5,286047004.4,Y
1608546935.4,286047001.9,P
1608546955.2,286047002.1,P
1608546975.0,286047002.6,P
1608546975.9,286047002.6,Y
1608546995.8,286047001.2,P
1608547015.6,286046999.5,N
1608547035.4,286046997.0,P
1608547055.3,286046999.1,N
1608547075.1,286046998.0,N
1608547095.9,286047011.9,Y
1608547115.7,286046999.6,P
1608547135.5,286047000.8,P
1608547155.4,286047000.2,N
1608547175.2,286047000.6,N
1608547195.0,286047000.4,N
1608547196.0,286047000.4,N
1608547215.8,286046999.4,N
1608547235.6,286046998.9,N
1608547255.5,286046998.5,N
1608547275.3,286047000.9,N
1608547295.1,286047000.6,N
1608547315.9,286046998.3,N
1608547335.7,286046999.2,N
1608547355.5,286046999.4,N
1608547375.4,286046998.6,N
1608547395.2,286047000.7,N
1608547415.1,286046996.6,Y
1608547416.0,286046996.6,P
1608547435.8,286046999.3,N
1608547455.6,286047001.2,N
1608547475.5,286047001.0,N
1608547495.3,286046999.1,N
1608547515.2,286046997.6,N
1608547535.9,286046998.8,N
1608547555.7,286047000.5,N
1608547575.6,286047000.2,N
1608547595.4,286047000.2,N
1608547615.2,286046998.5,N
1608547635.1,286046998.9,N
1608547636.0,286046998.9,N
1608547655.8,286046998.5,N
1608547675.7,286046999.6,N
1608547695.5,286046998.3,N
1608547715.3,286046999.0,N
1608547735.2,286046998.4,N
1608547755.0,286046998.6,N
1608547755.9,286046998.6,N
1608547775.7,286047000.0,N
1608547795.6,286047001.0,N
1608547815.4,286046998.4,N
1608547835.3,286046998.5,N
1608547855.1,286046998.4,N
1608547856.0,286046998.4,N
1608547875.8,286047000.4,N
1608547895.7,286046999.7,N
1608547915.5,286047000.5,N
1608547935.3,286047001.2,N
1608547955.2,286046999.6,N
1608547975.0,286046998.5,N
1608547975.9,286046998.5,N
1608547995.8,286046998.2,N
1608548015.6,286046997.0,Y
1608548035.4,286046998.3,P
1608548055.3,286047002.7,P
1608548075.1,286046999.0,N
1608548095.8,286046998.8,N
1608548115.7,286046999.4,N
1608548135.5,286047001.2,N
1608548155.4,286046999.0,N
1608548175.2,286046998.8,N
1608548195.0,286046998.8,N
1608548195.9,286046998.8,N
1608548215.8,286047001.1,N
1608548235.6,286046998.3,N
1608548255.5,286047002.0,N
1608548275.3,286046999.8,N
1608548295.1,286047001.2,N
1608548315.9,286046998.9,N
1608548335.7,286046996.5,N
1608548355.5,286046996.6,N
1608548375.4,286046999.0,N
1608548395.2,286047001.0,N
